RH
21 21 27 39 56 73 83 85 87 88 84 77 74 74 74 77 76 62 46 52 78 98 101 97 96 97 99 101 100 99 100 100 100 101 100 99 95 86 72 60 55 58 62 61 57 59 63 64 62 61 58 55 52 45 36 32 30 26 23 18 16 16 13
20 19 19 21 28 45 66 78 81 85 87 81 76 75 74 76 77 68 55 46 57 84 102 100 98 101 100 100 100 100 100 101 100 100 100 99 96 90 81 71 65 66 69 66 60 62 68 70 67 64 63 61 58 51 41 33 28 22 18 16 15 15 12
22 18 18 19 19 24 40 59 74 88 91 84 80 80 76 76 77 70 59 50 47 66 94 102 99 100 101 99 100 100 99 100 101 101 100 100 99 95 88 81 76 73 74 71 66 67 72 74 71 69 69 69 65 56 46 37 29 20 16 15 14 13 11
30 23 19 17 17 18 25 37 55 81 99 95 88 88 82 77 80 75 60 51 46 52 77 99 101 99 101 100 99 100 100 100 100 100 100 99 100 99 94 89 86 83 82 79 76 76 78 78 76 75 76 75 67 56 47 38 27 18 15 14 13 11 10
34 29 26 21 18 19 26 32 38 59 89 102 97 94 89 80 82 80 63 50 46 44 60 88 100 100 100 100 99 99 100 100 100 100 99 99 99 99 98 95 93 91 89 87 86 86 85 83 82 83 82 75 62 52 46 35 22 15 14 14 12 10 9
36 33 31 27 23 23 33 47 51 53 72 97 102 97 94 86 82 82 68 50 42 39 48 71 92 100 100 99 100 100 100 100 100 100 100 100 100 100 99 98 95 94 92 91 90 90 88 86 88 88 81 68 55 48 42 29 18 14 14 13 11 10 8
38 36 33 33 38 42 49 66 79 75 73 90 102 100 97 93 84 81 75 60 45 36 39 56 81 98 101 100 100 100 100 100 99 100 100 100 101 100 98 96 94 95 95 94 93 91 89 89 91 88 74 59 51 44 33 21 15 14 14 12 11 9 8
47 46 40 40 48 58 66 72 85 93 87 87 99 102 99 98 91 84 80 70 55 41 35 48 75 97 101 99 99 98 99 100 99 99 99 100 101 100 96 94 95 96 95 95 95 94 94 95 92 80 64 53 47 36 23 15 14 14 14 12 10 9 8
61 61 55 52 54 63 76 76 77 90 96 93 97 101 100 100 98 92 85 76 63 48 37 41 68 94 101 99 99 99 99 101 100 98 97 99 101 100 99 98 97 95 93 95 97 97 98 96 85 67 55 48 38 26 17 14 14 15 14 12 10 9 8
66 69 70 72 69 70 81 83 76 82 95 100 100 99 99 100 100 98 90 79 66 52 38 36 57 88 101 100 100 101 100 100 100 98 99 100 100 100 101 101 97 93 93 95 98 99 98 89 71 54 46 38 27 18 15 15 15 14 13 12 11 9 8
67 70 73 76 76 75 80 85 80 79 90 100 101 99 99 100 100 100 94 81 68 53 39 35 51 76 94 99 100 101 100 99 99 99 100 100 100 100 101 101 98 95 96 97 97 99 92 74 56 44 34 26 19 16 16 15 14 14 12 11 10 9 8
66 65 65 69 74 77 83 90 87 84 90 99 101 100 100 99 100 101 96 85 72 54 39 38 47 60 76 90 98 101 100 99 100 100 100 100 100 100 101 101 99 98 98 97 98 97 81 57 43 35 26 20 18 16 16 14 13 13 11 10 9 8 7
59 56 60 70 79 82 88 96 96 93 96 100 100 100 100 100 100 101 99 89 72 53 39 37 40 49 65 83 95 99 99 99 100 100 100 100 100 100 101 101 100 99 97 96 98 90 66 42 33 29 21 16 16 15 14 14 13 11 10 9 9 7 6
52 50 56 72 84 85 90 99 100 98 100 100 100 100 99 100 100 100 100 91 70 52 42 38 37 46 65 83 91 96 99 99 100 100 100 100 100 100 101 101 101 99 97 98 95 78 51 31 24 22 17 14 14 14 13 13 12 10 10 9 8 7 6
49 48 55 73 86 86 91 99 100 99 100 100 100 100 99 99 100 101 100 88 69 53 44 40 38 46 65 85 94 98 100 100 100 100 100 100 100 101 101 102 101 99 99 97 82 56 34 23 17 15 14 13 13 12 12 12 10 9 10 9 7 7 6
47 48 55 72 86 88 91 99 100 100 100 100 100 100 98 97 99 102 98 83 65 53 45 40 40 47 65 86 98 100 100 100 100 100 100 100 100 101 102 102 100 98 98 88 61 36 23 18 14 14 13 12 12 11 11 11 9 9 8 7 7 6 6
46 50 60 77 89 90 92 98 100 100 100 100 100 101 98 96 98 102 98 84 65 53 49 47 47 57 74 91 100 100 99 100 100 100 100 100 100 102 102 101 99 97 90 70 43 26 19 15 13 14 13 12 12 11 10 10 9 9 8 7 7 6 6
49 57 70 86 95 92 92 98 101 99 101 101 100 100 99 99 100 100 99 93 77 63 58 57 61 75 90 98 100 100 100 101 100 99 100 100 101 103 102 100 98 93 78 53 31 20 16 13 13 13 12 11 11 10 9 9 9 8 8 7 7 7 7
62 68 78 93 99 93 91 99 101 99 101 102 100 100 100 101 102 99 97 94 85 75 72 70 77 91 100 100 100 100 100 100 99 99 101 100 101 102 101 99 95 85 65 41 24 16 13 13 13 12 11 11 10 9 9 8 8 8 8 8 8 8 8
81 78 80 91 96 92 91 98 101 100 100 100 100 100 100 100 101 101 96 88 81 83 86 88 92 99 100 100 100 100 100 100 100 100 101 100 101 101 100 98 91 76 53 31 19 15 13 13 12 11 11 10 9 9 8 8 8 8 8 9 7 9 9
93 80 75 85 93 94 95 100 101 100 100 100 100 100 100 101 101 102 97 89 88 94 98 98 99 100 100 100 100 100 100 101 101 102 101 100 100 99 99 94 80 60 39 23 17 15 13 13 12 11 11 9 8 9 8 8 9 8 10 10 8 9 10
97 80 71 82 96 99 99 100 100 99 100 100 100 100 101 100 100 100 98 95 97 101 100 99 100 100 99 100 100 100 101 101 101 101 101 99 98 98 97 86 65 44 27 18 16 14 12 13 12 11 11 9 8 9 8 8 9 9 11 11 9 11 12
100 87 80 90 100 101 100 100 100 100 100 100 100 101 100 95 91 94 99 99 99 100 100 100 101 100 99 100 100 101 102 101 101 99 98 98 99 98 91 73 50 32 21 16 15 14 12 13 11 10 10 9 9 9 8 8 8 8 11 12 11 12 15
101 98 96 98 100 99 100 101 100 100 101 99 99 101 98 90 86 92 99 100 99 100 100 100 100 100 100 100 100 101 101 101 100 98 97 98 101 98 83 59 37 25 19 17 15 13 13 13 11 11 10 9 10 10 8 9 9 8 11 12 12 14 19
100 101 101 101 100 99 100 100 99 100 100 100 100 101 95 89 91 98 100 100 100 100 100 100 100 100 100 101 101 100 99 100 100 98 98 100 101 93 70 44 28 21 18 17 15 13 13 12 11 11 11 10 11 11 10 11 10 9 10 11 12 16 23
100 100 101 102 101 100 100 99 99 100 100 99 100 98 91 88 94 97 96 98 101 100 99 100 100 100 100 100 101 99 98 100 100 98 99 101 96 79 51 30 22 20 17 16 15 14 14 13 12 12 11 11 12 12 12 13 11 10 11 10 12 16 23
99 100 100 100 99 101 101 100 100 100 100 100 100 97 93 94 97 93 88 92 98 99 100 101 100 99 98 98 99 100 100 100 100 99 100 98 84 58 34 23 21 19 17 16 15 15 14 13 13 13 12 13 14 13 14 14 13 13 12 10 11 13 17
98 100 100 99 100 101 101 101 101 98 96 99 100 98 97 100 101 92 86 91 97 97 98 99 96 95 98 99 100 100 99 99 100 100 99 89 66 41 27 23 20 18 18 17 16 16 15 14 14 14 14 15 15 15 16 16 15 15 14 11 12 12 12
99 100 101 100 100 101 100 102 102 97 95 98 99 96 95 100 102 95 86 90 99 99 97 98 97 96 99 101 100 99 99 99 100 100 95 76 50 31 24 22 20 19 19 19 17 17 16 15 16 16 16 16 17 17 18 18 17 16 16 14 13 13 12
100 100 100 99 99 99 99 101 101 98 99 101 97 90 86 93 103 98 84 85 98 100 96 97 100 100 100 101 100 99 100 100 100 99 86 61 39 28 24 22 21 21 20 20 19 18 17 18 18 18 18 18 19 20 20 20 20 18 18 17 15 13 14
101 100 100 100 100 98 98 100 99 98 100 100 97 91 86 90 100 95 83 88 100 100 96 98 100 100 101 100 100 100 100 99 101 95 74 47 32 27 24 22 23 23 21 20 20 19 19 20 20 20 21 20 21 22 22 22 23 22 20 20 19 16 14
100 100 99 100 101 99 99 100 98 98 98 97 97 98 95 98 99 88 82 92 100 97 97 101 101 100 100 99 100 101 99 100 100 86 59 37 29 26 25 24 24 23 22 22 21 21 22 21 21 22 23 23 23 24 25 25 26 26 25 23 23 21 16
98 100 99 100 101 100 100 100 100 100 99 97 99 99 98 100 97 86 85 97 100 96 99 102 100 99 100 99 100 100 100 101 95 70 43 30 28 27 26 26 25 24 24 23 23 23 23 23 23 24 24 24 25 26 28 29 29 30 30 28 26 26 22
99 100 100 100 100 99 98 99 100 100 100 100 101 100 99 100 94 86 89 98 98 96 100 101 98 98 100 100 99 99 101 99 81 52 33 29 29 27 26 26 26 25 25 24 25 26 25 25 25 25 25 26 27 28 29 31 32 32 33 34 31 30 29
101 99 100 100 97 96 96 95 97 99 100 101 101 98 98 96 88 85 92 98 96 95 98 98 98 99 99 100 99 100 101 91 64 39 31 31 28 27 27 27 27 27 26 26 26 26 26 26 26 27 27 26 28 30 30 31 33 34 35 37 37 35 34
102 99 101 100 95 95 97 95 96 99 99 99 99 96 93 91 89 90 97 101 99 98 98 97 99 100 100 99 100 101 97 78 50 34 32 31 28 28 28 28 28 28 27 27 28 27 27 27 26 26 27 27 27 30 30 31 33 35 36 39 40 40 39
Wind_Speed
43 44 46 49 51 50 49 47 46 45 45 45 45 45 44 42 40 40 40 40 41 44 45 44 42 43 45 48 49 50 50 49 48 46 46 47 47 48 47 47 47 47 47 45 44 43 43 41 39 39 37 37 38 39 38 38 40 43 46 48 48 47 48
41 42 43 45 46 48 50 49 48 47 47 46 47 48 47 45 41 39 40 40 40 41 45 46 44 43 45 46 47 49 48 48 46 45 45 45 46 46 47 47 47 47 47 47 45 44 43 41 40 40 39 39 40 39 38 37 39 43 45 47 47 48 48
40 40 41 42 43 44 47 49 48 47 47 47 48 49 48 47 43 40 39 40 40 39 42 45 44 43 44 45 46 47 47 46 45 44 44 44 45 45 46 46 46 47 47 47 47 45 43 41 41 41 41 41 41 41 39 38 39 42 44 45 46 47 47
40 39 39 40 41 41 42 45 47 46 45 46 48 49 48 47 44 41 39 39 39 39 40 43 45 44 43 44 45 47 47 45 44 43 43 44 44 45 45 45 46 46 46 47 47 46 43 41 41 42 42 42 42 41 39 38 40 42 43 44 44 45 47
40 39 38 39 40 41 41 41 43 44 44 44 46 48 47 46 44 41 39 39 39 39 38 41 46 46 43 43 45 47 47 45 43 42 43 43 44 44 44 45 45 45 45 46 47 46 42 41 41 42 42 42 41 40 39 38 40 42 43 43 44 45 45
39 39 39 38 38 40 41 41 41 41 42 43 44 46 46 45 42 40 38 37 38 39 38 40 45 48 47 44 44 45 45 43 42 43 42 42 43 43 44 44 45 45 44 45 45 44 42 40 41 41 41 40 39 40 39 39 40 41 42 42 43 44 44
37 37 38 38 37 38 40 42 42 40 41 43 44 44 44 44 42 39 38 36 36 37 38 39 43 47 48 44 42 43 43 43 43 43 41 41 42 42 42 43 44 44 44 44 43 41 40 40 39 39 38 38 38 39 38 38 40 42 41 42 43 44 43
35 36 36 36 37 38 39 42 43 42 41 43 45 43 43 44 42 39 38 37 36 36 37 39 41 44 45 43 41 42 44 44 44 41 41 41 41 41 42 43 43 43 43 42 41 40 39 38 38 36 35 36 37 38 38 38 40 42 42 42 43 43 43
33 35 36 37 38 39 40 42 44 44 42 44 46 44 42 44 42 40 38 37 36 36 37 38 39 40 43 44 44 44 45 45 42 40 41 42 41 40 41 41 40 41 41 41 41 39 37 36 35 34 33 34 36 37 38 38 39 41 42 42 43 42 42
33 35 36 37 38 39 40 41 44 45 44 44 45 44 43 44 42 40 39 38 36 36 36 37 38 39 41 43 44 45 45 44 42 42 43 42 40 39 39 38 38 38 39 40 40 38 35 34 33 31 32 33 34 36 37 38 39 41 42 42 43 42 41
32 34 35 35 35 36 38 40 42 45 45 43 43 43 44 44 42 40 39 38 36 35 35 35 36 37 39 40 41 43 43 43 43 44 43 40 39 38 37 36 36 37 37 38 39 37 34 32 31 31 31 32 33 35 36 37 38 40 41 42 43 43 42
31 32 32 33 33 33 35 37 40 42 43 42 41 41 42 43 43 40 38 37 35 34 34 34 34 36 37 38 39 41 42 43 45 44 41 39 38 36 34 34 35 35 36 37 37 35 31 30 30 31 30 30 32 34 35 36 38 39 40 41 42 43 43
30 31 31 31 30 31 32 34 35 37 38 38 37 38 40 41 41 39 37 35 34 33 33 32 32 33 35 35 37 38 41 44 45 43 40 38 36 33 32 32 33 33 35 36 36 33 29 29 30 30 29 29 32 34 35 36 37 38 39 40 41 43 43
29 30 30 30 29 30 31 30 30 30 31 32 32 34 37 37 37 36 34 33 32 32 32 31 31 32 33 34 35 38 41 43 43 41 39 37 34 31 30 30 30 31 33 35 34 31 28 27 28 29 28 28 31 34 35 37 37 37 38 39 41 42 41
28 29 30 30 29 28 29 27 24 24 27 28 29 30 32 33 33 33 32 31 31 31 30 30 31 32 33 34 36 39 40 41 40 39 37 34 31 29 28 28 29 30 32 32 31 29 28 27 26 28 28 29 31 33 35 37 37 37 39 40 41 41 40
28 28 30 30 28 27 27 24 20 21 23 25 26 27 29 31 30 31 31 30 30 30 29 29 30 31 32 34 36 37 38 39 39 37 34 31 28 27 26 26 28 30 30 29 28 27 27 26 26 28 28 29 32 34 35 36 36 36 39 41 41 41 40
28 29 30 30 28 25 24 22 18 19 21 23 26 26 28 29 28 29 29 29 29 29 28 28 28 29 31 33 33 34 36 37 36 33 30 27 25 24 24 25 27 28 27 26 25 25 25 26 26 27 28 29 31 33 35 35 35 36 38 40 41 41 41
29 29 30 29 25 23 22 20 18 18 19 23 26 26 27 27 26 26 26 27 28 28 28 27 27 28 29 30 31 33 34 33 31 29 27 24 22 22 23 25 26 26 24 24 24 24 24 25 26 26 27 28 30 31 32 34 35 36 37 39 40 41 41
30 29 27 25 23 22 21 20 18 18 19 23 25 25 24 24 23 22 22 25 28 29 27 27 26 27 27 28 29 31 31 29 27 26 23 21 21 22 23 24 24 23 22 23 23 23 24 24 25 25 26 27 28 29 30 32 34 35 37 38 39 41 42
30 28 25 23 21 20 20 18 17 17 19 22 22 21 21 20 18 17 19 24 27 27 26 24 24 24 25 26 28 28 27 26 24 22 20 20 21 22 22 22 22 21 21 21 22 22 22 22 23 24 24 25 26 27 29 31 33 34 36 38 39 39 41
29 26 23 21 19 17 17 15 13 15 18 20 19 19 18 16 13 13 16 21 25 24 23 21 20 21 23 25 26 25 24 23 22 19 18 20 21 21 20 20 20 19 20 20 21 21 20 21 22 22 22 23 24 26 28 30 32 33 34 36 37 38 39
25 21 18 16 14 14 14 12 9 10 12 15 17 17 15 13 11 13 16 20 22 20 19 18 17 19 21 22 23 22 22 21 19 18 18 20 20 19 18 18 18 18 19 19 19 19 19 19 19 20 21 22 23 25 26 28 29 30 32 33 35 36 37
20 15 12 12 12 11 11 11 10 9 9 11 15 16 13 11 10 11 14 17 18 16 15 16 17 19 21 22 22 21 20 18 17 17 18 18 18 17 16 17 17 18 18 18 18 18 17 17 17 18 19 20 22 23 24 26 27 28 29 31 33 34 35
16 12 10 10 12 12 10 10 12 11 9 10 13 12 9 7 6 8 11 14 15 14 14 15 17 19 21 21 20 19 18 16 15 16 16 16 16 16 16 17 17 17 17 17 17 16 15 15 15 16 17 19 20 21 23 24 25 26 27 29 31 33 34
14 12 10 9 11 12 10 9 10 10 9 9 11 9 6 4 2 5 10 13 13 13 13 15 18 19 19 19 19 18 17 15 15 15 15 15 16 16 16 16 16 16 16 15 15 14 14 14 14 15 16 18 19 20 21 23 24 25 26 27 28 30 32
13 11 10 9 10 11 10 9 7 7 7 9 10 7 6 5 3 5 9 14 14 13 14 16 17 17 17 18 17 17 15 14 15 15 15 16 16 16 16 15 15 14 14 13 12 12 12 13 13 14 16 18 19 20 21 21 23 24 25 26 27 27 29
13 12 11 11 10 10 10 9 8 8 6 8 10 7 6 8 7 6 6 10 13 13 14 15 16 16 17 16 16 15 14 14 15 15 16 16 15 15 15 14 13 13 12 11 11 10 11 12 13 14 16 17 19 20 21 21 22 23 24 25 26 27 27
13 14 14 14 12 11 10 9 11 11 9 9 11 9 10 12 11 7 5 5 9 13 16 17 17 16 15 15 15 16 15 15 16 16 16 15 15 14 13 13 12 11 11 10 9 10 10 11 13 14 16 17 18 19 21 22 23 23 24 25 27 28 28
15 15 14 13 13 12 11 10 12 13 12 11 12 12 12 13 13 9 5 6 8 12 16 18 17 16 15 15 17 16 16 16 16 16 15 15 14 13 12 11 11 10 9 9 9 9 10 11 12 13 15 17 17 18 20 21 23 23 24 25 27 29 29
15 13 11 12 14 15 14 13 12 12 12 11 12 14 14 15 14 10 8 9 11 12 15 17 18 16 16 17 18 17 16 17 16 15 15 14 13 12 11 10 9 9 8 8 8 9 9 10 11 13 14 15 16 17 19 20 22 23 24 25 26 28 29
15 13 13 14 16 17 16 14 14 14 13 12 12 12 14 15 15 12 11 12 13 12 14 16 18 18 18 18 19 18 17 16 16 15 14 13 12 12 10 9 8 8 8 8 8 8 9 10 11 12 14 14 15 17 18 19 20 21 23 25 26 27 28
15 17 19 18 16 16 16 14 15 16 16 16 16 14 14 14 13 12 13 13 12 13 15 17 18 19 19 19 18 17 17 16 15 15 14 13 12 11 9 8 7 7 7 7 7 8 9 10 11 12 14 14 15 17 17 18 19 19 20 22 24 25 27
17 20 21 17 13 13 13 14 15 15 16 19 20 19 18 16 13 12 13 11 10 11 15 17 19 20 20 19 18 17 17 16 15 14 13 12 11 10 8 7 7 7 7 7 7 8 9 10 11 13 14 15 16 17 17 18 19 19 19 20 21 22 23
19 20 17 11 8 9 10 11 14 15 15 18 20 22 22 20 16 14 14 11 9 10 14 17 19 19 18 19 18 18 16 16 15 14 13 12 10 8 7 7 7 6 6 6 7 8 9 10 11 13 14 15 16 17 18 19 19 19 19 19 19 20 21
20 19 12 6 2 5 7 8 11 15 16 16 18 21 23 21 17 16 15 13 11 12 14 17 19 19 18 18 18 17 16 16 15 14 12 11 9 7 7 7 7 6 5 6 7 8 9 10 11 13 14 15 16 17 18 19 20 20 21 21 21 21 21
22 19 11 6 4 1 2 4 7 12 16 18 19 20 19 17 16 14 13 12 13 15 17 19 20 20 20 19 17 17 17 16 15 14 12 10 8 7 8 7 6 5 5 6 7 8 9 10 12 13 14 16 17 18 18 20 21 22 22 23 23 23 23
Wind_Direction
276 275 273 269 265 259 255 255 256 256 257 259 261 263 263 265 266 266 264 262 259 256 251 248 247 249 252 252 251 252 253 254 255 256 256 257 257 256 256 258 260 262 264 266 267 268 268 269 269 270 270 271 273 274 275 277 279 281 282 284 287 290 291
275 275 275 275 273 266 259 256 256 256 256 257 259 261 261 262 264 265 264 261 260 258 254 249 247 248 250 250 249 251 252 253 254 255 256 257 257 257 257 258 260 262 264 265 267 268 269 271 272 274 275 275 276 277 277 278 280 281 283 286 289 291 293
274 275 274 275 276 273 266 262 260 257 255 255 256 258 258 259 260 262 263 260 259 258 256 251 247 247 249 248 248 250 251 253 253 255 257 257 257 257 257 258 259 261 263 265 266 269 271 272 274 275 277 278 278 279 280 280 281 282 285 288 291 293 295
274 274 274 273 274 275 272 267 264 260 255 253 253 254 255 255 255 258 260 259 258 257 255 251 246 245 247 248 249 250 250 252 254 256 259 260 260 260 259 259 261 262 264 266 267 270 272 273 274 275 278 279 279 280 281 282 282 283 286 289 292 294 296
275 275 275 273 272 273 273 270 266 262 256 252 250 250 250 251 251 253 256 257 256 255 254 252 249 245 244 246 248 249 250 251 255 258 261 263 263 263 262 262 263 264 265 267 268 271 273 274 274 275 277 278 279 280 282 282 283 285 288 291 293 294 296
277 278 277 275 272 271 272 270 266 262 257 252 248 247 247 247 247 247 251 254 255 253 251 251 251 247 244 244 247 249 251 253 256 259 262 265 266 266 266 266 266 266 267 268 270 273 274 274 273 274 276 278 279 281 282 283 284 287 289 292 294 295 295
279 279 278 277 274 271 271 268 263 259 255 251 248 245 243 244 243 243 245 250 253 252 248 247 251 250 245 244 247 249 250 252 254 258 262 265 266 267 269 269 269 269 269 270 272 273 274 273 273 274 275 277 279 280 283 284 286 288 291 293 295 295 296
282 281 279 277 276 275 274 271 263 257 253 250 249 246 241 240 241 239 241 244 248 250 247 244 248 249 244 241 244 246 248 250 252 257 261 263 264 265 267 269 270 271 272 272 272 272 272 272 273 274 276 277 279 281 283 286 288 290 293 295 296 297 298
284 284 281 279 278 278 278 275 266 258 251 249 250 250 244 239 239 237 237 240 243 246 246 243 243 245 242 241 242 243 245 247 250 255 258 259 261 262 265 268 270 272 273 273 272 271 272 272 273 275 276 277 279 282 285 287 290 292 295 296 297 299 301
285 286 283 281 280 280 280 277 268 260 253 249 250 252 247 240 237 235 234 237 240 242 244 241 240 241 242 244 245 245 246 247 250 254 256 256 258 260 263 268 270 272 272 271 271 271 271 272 273 275 276 277 280 283 286 289 292 295 297 299 300 302 303
287 287 286 285 283 282 280 277 270 261 254 249 249 252 250 243 237 234 232 234 238 240 242 240 238 239 240 243 245 246 247 249 251 253 254 254 256 259 263 267 269 271 270 270 270 270 270 272 274 275 276 279 282 284 288 292 295 298 300 301 303 304 305
289 290 289 289 287 283 281 279 273 262 252 247 246 249 250 245 237 233 230 231 235 238 241 239 238 238 238 239 243 245 247 249 251 253 253 254 255 258 263 267 269 270 270 269 269 270 272 274 275 275 278 282 285 287 291 295 298 300 302 304 305 306 305
291 292 292 292 290 287 285 284 277 264 252 244 242 247 250 244 238 234 229 228 231 234 237 238 238 238 237 237 240 243 246 248 250 251 252 252 255 259 263 267 268 269 268 268 269 269 272 275 275 278 283 288 290 291 294 297 300 302 304 305 306 306 306
293 295 295 296 295 291 290 288 278 262 249 241 241 246 246 239 235 234 231 228 229 231 233 234 235 236 236 237 238 240 244 246 248 250 251 252 255 259 264 266 266 266 266 267 269 271 273 277 280 284 289 291 293 295 298 300 302 304 306 306 307 307 306
295 298 297 298 298 294 293 293 277 254 244 241 241 242 238 232 231 234 232 229 228 230 231 231 233 234 233 233 235 239 243 245 247 248 250 253 256 259 263 264 264 264 265 267 271 274 278 281 284 288 292 295 296 298 300 302 305 308 309 309 308 308 308
298 300 299 300 300 296 297 296 276 250 244 241 237 234 232 230 230 232 232 229 227 228 228 229 231 232 230 230 233 237 241 242 244 247 250 253 257 259 261 261 261 262 263 266 271 276 281 285 288 291 295 297 299 300 302 304 309 312 311 310 310 309 309
300 301 300 301 302 298 297 295 273 253 247 239 232 231 232 232 230 228 230 229 226 225 227 227 228 229 228 228 231 235 240 242 244 248 250 252 255 257 257 258 258 260 263 267 272 277 282 286 289 293 297 299 301 302 304 308 312 312 311 311 311 310 309
301 301 300 302 302 297 296 291 272 258 249 236 231 233 235 236 234 231 231 231 227 224 225 226 225 225 224 227 231 235 240 242 244 247 249 250 252 252 253 254 257 259 264 269 274 279 283 287 290 294 297 299 301 303 307 311 313 313 313 312 311 310 309
300 300 300 303 303 296 293 287 270 257 247 234 232 239 242 241 240 235 233 233 230 226 224 223 222 222 223 226 230 235 239 241 243 244 246 247 247 248 250 252 255 259 264 270 275 279 282 286 290 293 296 298 303 307 311 313 314 314 314 312 312 311 310
301 298 297 302 302 293 289 282 263 248 240 232 234 243 245 244 245 241 236 232 229 227 224 222 222 223 225 227 230 233 236 237 238 239 241 243 244 245 248 249 252 257 263 268 273 277 281 286 289 294 298 302 307 311 313 314 315 315 314 313 313 312 311
305 298 294 298 298 290 286 276 251 237 235 234 236 241 243 244 249 249 240 229 224 224 223 222 223 224 225 226 228 229 230 232 234 234 235 239 241 242 244 246 250 257 262 266 271 276 281 285 289 295 300 305 311 314 315 316 316 315 314 313 313 312 310
311 301 293 294 293 288 286 278 253 237 238 238 236 236 241 245 246 248 239 224 218 222 222 219 217 217 218 221 221 222 225 229 232 231 231 235 238 238 241 247 252 257 261 265 271 274 279 285 291 298 305 311 315 316 315 316 315 314 314 314 314 313 311
317 306 293 289 291 293 289 277 262 250 244 239 229 227 238 246 239 237 230 216 214 219 217 211 210 209 212 215 216 219 223 227 228 229 229 232 236 238 242 249 253 257 261 266 269 273 279 287 295 303 309 313 315 314 314 314 315 317 318 318 317 315 312
324 316 301 287 288 293 287 270 257 248 243 234 221 219 232 241 231 226 218 209 212 217 212 209 210 210 213 217 218 220 223 224 226 230 232 234 237 240 244 248 251 255 261 264 269 275 283 291 299 306 311 313 312 311 313 316 320 324 324 324 322 319 316
323 317 306 290 285 283 281 275 259 251 249 231 213 212 227 231 247 243 221 208 209 214 212 210 212 214 218 222 223 221 221 223 228 232 234 236 238 240 243 246 249 254 259 264 272 280 288 296 304 309 310 308 308 310 316 323 328 330 330 330 329 326 324
316 313 308 299 287 274 274 278 268 267 266 230 207 212 236 241 275 276 233 212 208 214 218 217 217 217 218 222 224 221 219 224 231 234 234 235 237 238 241 245 249 254 260 267 276 284 293 301 307 307 306 306 308 313 320 327 331 332 333 334 335 335 332
310 307 300 299 295 280 273 269 262 272 268 212 196 208 235 235 247 275 256 220 214 222 230 230 228 223 218 219 221 219 220 228 233 234 233 233 234 236 240 245 250 257 264 271 279 289 298 303 305 305 307 310 313 319 324 329 332 333 335 337 339 340 339
313 308 298 295 296 288 275 259 251 254 244 208 198 211 232 234 232 248 284 250 225 230 237 238 236 231 224 220 215 216 224 232 233 232 230 230 232 234 240 247 253 260 268 276 285 295 298 301 305 308 311 314 317 322 327 329 332 334 337 340 342 343 342
322 322 314 306 305 299 284 262 248 243 237 225 213 211 225 236 229 226 255 265 244 240 240 238 237 234 228 218 212 217 228 231 229 228 226 227 230 234 240 248 255 264 274 280 289 295 297 302 309 312 313 316 320 325 328 330 332 335 340 342 342 342 343
316 320 316 307 307 306 294 272 253 239 232 230 223 215 224 237 234 229 245 258 257 253 242 233 227 223 219 213 211 218 227 226 225 224 223 224 229 233 240 249 257 268 277 281 289 295 301 309 312 311 313 317 322 326 329 331 334 337 341 342 342 341 343
310 308 304 297 293 292 288 273 254 239 227 222 221 220 224 231 233 236 249 258 260 253 237 224 216 210 208 209 212 218 223 224 223 221 220 222 226 232 241 250 259 269 277 282 291 298 305 310 311 312 315 319 323 328 331 334 338 340 341 341 340 341 342
314 310 307 298 284 277 275 262 245 236 227 218 215 218 220 219 222 232 246 257 258 244 226 215 207 203 204 208 213 219 222 221 220 218 217 219 224 231 241 250 259 269 276 284 295 302 308 313 314 315 319 323 326 330 333 336 340 342 342 341 341 341 342
320 317 313 303 281 266 261 249 236 231 226 216 213 218 223 221 221 233 243 252 254 238 222 211 205 203 205 208 212 217 219 217 214 212 213 216 223 231 241 251 260 269 277 288 302 310 314 317 319 320 324 327 328 330 334 338 340 342 342 342 341 341 342
330 332 327 312 275 249 245 237 225 223 224 217 213 219 226 225 223 231 237 238 238 232 222 211 205 204 204 207 211 214 215 212 208 207 210 216 222 231 242 251 259 267 280 296 310 316 319 321 324 326 329 330 330 332 336 338 339 340 342 342 343 345 346
349 353 352 348 287 229 230 229 217 214 217 216 216 223 230 227 223 226 232 233 232 227 217 206 202 200 200 205 210 210 208 206 203 202 208 216 222 232 243 250 257 268 286 303 312 318 322 325 329 331 332 331 332 334 337 338 339 340 342 343 345 347 349
9 12 15 28 44 68 221 230 219 210 210 215 220 227 229 223 216 219 227 231 231 224 210 198 195 196 199 203 207 206 203 201 199 201 208 215 220 233 242 249 258 272 289 305 313 320 325 329 332 334 334 334 335 337 338 339 339 341 341 343 345 347 348